Погода в Баме

Иран     29°06′26″N   58°20′44″E
темп.,
°C
ветер,
м/с
пор.,
м/с
влажн.,
%
обл.,
%
осадки,
мм/ч
давл.,
гПа
погр.,
м
12 мая, ср
ср1201:30+24зюз33260 0.0 101034
04:30+23зсз33260 0.0 101031
07:30+24зсз45220 0.0 1012473
10:30+27ссв44170 0.0 10122008
13:30+30ссв76150 0.0 10103005
16:30+28ссз761996 0.0 10082059
19:30+23з7732100 0.1 1011457
22:30+25з342635 0.1 1010427
13 мая, чт
чт1301:30+23сз45324 0.0 1009119
04:30+22зсз333529 0.0 100952
07:30+23зсз23260 0.0 1011395
10:30+27ссв44160 0.0 10101853
13:30+29св971215 0.0 10082724
16:30+26з242241 0.1 10081395
19:30+25зсз682498 0.0 1008815
22:30+25сз572091 0.0 1010304
14 мая, пт
пт1401:30+23зсз22224 0.0 100843
04:30+21зсз33240 0.0 100828
07:30+23сз35210 0.0 1010437
10:30+26с54164 0.0 10101691
13:30+28ссв86145 0.0 10082646
16:30+26зсз661932 0.0 10082391
19:30+23зсз773039 0.0 1009630
22:30+23з34265 0.0 1009153
15 мая, сб
сб1501:30+22зсз222559 0.0 100755
04:30+20сз442735 0.0 100965
07:30+22ссз58120 0.0 1010782
10:30+25с55130 0.0 10101632
13:30+27св871310 0.0 10072439
16:30+27с861418 0.0 10062638
19:30+22зсз7103464 0.1 1007434
22:30+23сз351628 0.1 1009225
16 мая, вс
вс1601:30+22з22180 0.0 100832
04:30+20з11190 0.0 100815
07:30+22зюз11140 0.0 1011231
10:30+26всв33116 0.0 10101892
13:30+29всв66115 0.0 10072639
16:30+29св75116 0.0 10062313
19:30+23зсз56301 0.0 1010350
22:30+25ю342192 0.0 1009129